Regional Weather Roundup
Issued by NWS Cleveland, OH

Home | Current Version | Previous Version | Text Only | Print | Product List | Glossary Off
Versions: 1 2 3 4 5 6 7 8 9 10 11 12 13 14 15 16 17 18 19 20 21 22 23 24 25 26 27 28 29 30 31 32 33 34 35 36 37 38 39 40 41 42 43 44 45 46 47 48 49 50

000
ASUS41 KCLE 181500
RWRCLE
OHIO REGIONAL WEATHER ROUNDUP
NATIONAL WEATHER SERVICE WILMINGTON, OH
1100 AM EDT SAT APR 18 2015

NOTE: "FAIR" INDICATES FEW OR NO CLOUDS BELOW 12,000 FEET WITH NO
SIGNIFICANT WEATHER AND/OR OBSTRUCTIONS TO VISIBILITY.

OHZ001>008-015>018-024>027-034-035-043-044-181600-
   NORTHWEST OHIO

CITY           SKY/WX    TMP DP  RH WIND       PRES   REMARKS
DEFIANCE       SUNNY     74  50  42 VRB7      30.05S
FINDLAY        SUNNY     73  48  41 CALM      30.05S
TOLEDO EXPRESS SUNNY     72  48  42 NW8       30.04S
TOLEDO EXEC    MOSUNNY   72  47  40 NW7       30.04F
LIMA           MOSUNNY   71  48  43 NW6       30.07R
$$

OHZ009>014-019>023-028>033-038-089-181600-
   NORTHEAST OHIO

CITY           SKY/WX    TMP DP  RH WIND       PRES   REMARKS
CLE-HOPKINS    CLOUDY    71  45  39 NW6       30.08S
CLE-LAKEFRONT  MOSUNNY   62  44  51 W5        30.06R
CUY CO. ARPT   PTSUNNY   68  46  45 NW10      30.07R
LORAIN-ELYRIA  MOSUNNY   70  46  42 CALM      30.06S
ASHTABULA      SUNNY     69  42  37 NW8       30.07R
AKRON-CANTON   SUNNY     71  45  39 CALM      30.07S
WOOSTER        NOT AVBL
MANSFIELD      SUNNY     71  43  36 NW8       30.07S
YOUNGSTOWN     PTSUNNY   67  47  48 VRB6      30.06S
$$

OHZ042-051>053-060>062-070>072-077>081-181600-
  SOUTHWEST OHIO

CITY           SKY/WX    TMP DP  RH WIND       PRES   REMARKS
CINC-COVINGTON NOT AVBL
CINC-LUNKEN    MOSUNNY   67  49  52 CALM      30.05F
HAMILTON       MOSUNNY   69  50  50 E3        30.06F
DAYTON         NOT AVBL
WRIGHT-PAT AFB SUNNY     68  45  42 VRB1      30.06F
DAYTON GENERAL SUNNY     72  45  37 VRB5      30.06F
WILMINGTON     SUNNY     70  45  40 CALM      30.06F
$$

OHZ036-037-039>041-045>050-054>059-063>069-073>076-082>088-181600-
  CENTRAL AND SOUTHEAST OHIO

CITY           SKY/WX    TMP DP  RH WIND       PRES   REMARKS
COLUMBUS       MOSUNNY   70  46  42 CALM      30.07S
OSU AIRPORT    SUNNY     69  45  41 CALM      30.07S
BOLTON FIELD   SUNNY     70  48  46 CALM      30.08R
RICKENBACK AFB NOT AVBL
NEWARK         SUNNY     71  49  45 CALM      30.06S
MARION         MOSUNNY   70  46  42 NE5       30.07S
LANCASTER      SUNNY     70  45  40 CALM      30.08R
ZANESVILLE     SUNNY     67  47  48 S3        30.07S
NEW PHILLY     SUNNY     71  48  43 CALM      30.07F
$$


USA.gov is the U.S. government's official web portal to all federal, state and local government web resources and services.